TimeEST,TemperatureF,Dew PointF,Humidity,Sea Level PressureIn,VisibilityMPH,Wind Direction,Wind SpeedMPH,Gust SpeedMPH,PrecipitationIn,Events,Conditions,WindDirDegrees,DateUTC
12:35 AM,37.4,30.2,75,30.22,10.0,Calm,Calm,-,N/A,,Scattered Clouds,0,2013-01-07 05:35:00
12:55 AM,33.8,30.2,87,30.22,10.0,Calm,Calm,-,N/A,,Clear,0,2013-01-07 05:55:00
1:35 AM,30.2,28.4,93,30.23,10.0,Calm,Calm,-,N/A,,Clear,0,2013-01-07 06:35:00
1:55 AM,30.2,28.4,93,30.24,10.0,Calm,Calm,-,N/A,,Clear,0,2013-01-07 06:55:00
2:15 AM,30.2,30.2,100,30.24,10.0,Calm,Calm,-,N/A,,Mostly Cloudy,0,2013-01-07 07:15:00
2:35 AM,33.8,32.0,93,30.24,10.0,Calm,Calm,-,N/A,,Overcast,0,2013-01-07 07:35:00
2:55 AM,33.8,32.0,93,30.25,10.0,Calm,Calm,-,N/A,,Overcast,0,2013-01-07 07:55:00
3:15 AM,33.8,30.2,87,30.25,10.0,Calm,Calm,-,N/A,,Overcast,0,2013-01-07 08:15:00
3:35 AM,32.0,30.2,93,30.26,10.0,Calm,Calm,-,N/A,,Mostly Cloudy,0,2013-01-07 08:35:00
3:55 AM,33.8,30.2,87,30.25,10.0,Calm,Calm,-,N/A,,Scattered Clouds,0,2013-01-07 08:55:00
4:15 AM,33.8,30.2,87,30.26,10.0,Calm,Calm,-,N/A,,Clear,0,2013-01-07 09:15:00
4:35 AM,33.8,30.2,87,30.27,10.0,Calm,Calm,-,N/A,,Clear,0,2013-01-07 09:35:00
4:55 AM,33.8,28.4,81,30.28,10.0,Calm,Calm,-,N/A,,Clear,0,2013-01-07 09:55:00
5:15 AM,33.8,28.4,81,30.28,10.0,Calm,Calm,-,N/A,,Clear,0,2013-01-07 10:15:00
5:55 AM,32.0,28.4,87,30.30,10.0,NW,3.5,-,N/A,,Clear,320,2013-01-07 10:55:00
6:15 AM,32.0,28.4,87,30.32,10.0,Calm,Calm,-,N/A,,Clear,0,2013-01-07 11:15:00
6:35 AM,32.0,28.4,87,30.34,10.0,Calm,Calm,-,N/A,,Clear,0,2013-01-07 11:35:00
6:55 AM,32.0,28.4,87,30.35,10.0,NNW,3.5,-,N/A,,Clear,340,2013-01-07 11:55:00
7:15 AM,32.0,28.4,87,30.36,10.0,North,3.5,-,N/A,,Clear,350,2013-01-07 12:15:00
7:35 AM,32.0,28.4,87,30.38,10.0,North,4.6,-,N/A,,Clear,350,2013-01-07 12:35:00
7:55 AM,32.0,28.4,87,30.39,10.0,NNW,4.6,-,N/A,,Clear,330,2013-01-07 12:55:00
8:15 AM,33.8,30.2,87,30.41,10.0,North,6.9,-,N/A,,Clear,350,2013-01-07 13:15:00
8:35 AM,37.4,33.8,87,30.42,10.0,North,4.6,-,N/A,,Clear,350,2013-01-07 13:35:00
8:55 AM,42.8,33.8,70,30.43,10.0,NNW,4.6,-,N/A,,Clear,340,2013-01-07 13:55:00
9:15 AM,44.6,32.0,61,30.44,10.0,North,5.8,-,N/A,,Clear,10,2013-01-07 14:15:00
9:35 AM,46.4,33.8,62,30.45,10.0,Calm,Calm,-,N/A,,Clear,0,2013-01-07 14:35:00
9:55 AM,46.4,32.0,57,30.45,10.0,North,6.9,-,N/A,,Clear,10,2013-01-07 14:55:00
10:15 AM,46.4,33.8,62,30.47,10.0,NNE,4.6,-,N/A,,Clear,30,2013-01-07 15:15:00
10:35 AM,48.2,32.0,54,30.47,10.0,NNE,6.9,-,N/A,,Clear,30,2013-01-07 15:35:00
11:18 AM,48.2,32.0,54,30.46,10.0,North,8.1,-,N/A,,Clear,360,2013-01-07 16:18:00
11:57 AM,51.8,32.0,47,30.45,10.0,NNE,4.6,-,N/A,,Clear,20,2013-01-07 16:57:00
12:38 PM,51.8,30.2,44,30.44,10.0,NNE,3.5,-,N/A,,Clear,20,2013-01-07 17:38:00
12:57 PM,53.6,30.2,41,30.44,10.0,North,3.5,-,N/A,,Clear,10,2013-01-07 17:57:00
1:17 PM,53.6,32.0,44,30.44,10.0,North,5.8,-,N/A,,Clear,360,2013-01-07 18:17:00
2:18 PM,55.4,32.0,41,30.43,10.0,Calm,Calm,-,N/A,,Clear,0,2013-01-07 19:18:00
2:37 PM,55.4,32.0,41,30.43,10.0,Calm,Calm,-,N/A,,Clear,0,2013-01-07 19:37:00
2:57 PM,53.6,30.2,41,30.43,10.0,North,5.8,-,N/A,,Clear,360,2013-01-07 19:57:00
3:15 PM,53.6,30.2,41,30.43,10.0,Calm,Calm,-,N/A,,Clear,0,2013-01-07 20:15:00
3:35 PM,53.6,30.2,41,30.44,10.0,Calm,Calm,-,N/A,,Clear,0,2013-01-07 20:35:00
3:55 PM,55.4,32.0,41,30.45,10.0,Calm,Calm,-,N/A,,Clear,0,2013-01-07 20:55:00
4:15 PM,53.6,30.2,41,30.45,10.0,Calm,Calm,-,N/A,,Clear,0,2013-01-07 21:15:00
4:35 PM,51.8,30.2,44,30.46,10.0,Calm,Calm,-,N/A,,Clear,0,2013-01-07 21:35:00
4:55 PM,50.0,30.2,47,30.46,10.0,Calm,Calm,-,N/A,,Clear,0,2013-01-07 21:55:00
5:15 PM,42.8,30.2,61,30.46,10.0,Calm,Calm,-,N/A,,Clear,0,2013-01-07 22:15:00
6:37 PM,33.8,30.2,87,30.48,10.0,Calm,Calm,-,N/A,,Clear,0,2013-01-07 23:37:00
7:39 PM,30.2,30.2,100,30.48,10.0,Calm,Calm,-,N/A,,Clear,0,2013-01-08 00:39:00
8:55 PM,28.4,28.4,100,30.49,10.0,Calm,Calm,-,N/A,,Clear,0,2013-01-08 01:55:00
9:15 PM,28.4,28.4,100,30.48,10.0,Calm,Calm,-,N/A,,Clear,0,2013-01-08 02:15:00
9:55 PM,28.4,28.4,100,30.48,10.0,Calm,Calm,-,N/A,,Clear,0,2013-01-08 02:55:00
10:15 PM,26.6,26.6,100,30.48,10.0,Calm,Calm,-,N/A,,Clear,0,2013-01-08 03:15:00
10:35 PM,26.6,26.6,100,30.48,10.0,Calm,Calm,-,N/A,,Clear,0,2013-01-08 03:35:00
10:55 PM,26.6,26.6,100,30.48,10.0,Calm,Calm,-,N/A,,Clear,0,2013-01-08 03:55:00
11:15 PM,26.6,26.6,100,30.48,10.0,Calm,Calm,-,N/A,,Clear,0,2013-01-08 04:15:00
11:35 PM,26.6,26.6,100,30.47,10.0,SE,3.5,-,N/A,,Clear,140,2013-01-08 04:35:00
11:55 PM,26.6,26.6,100,30.47,10.0,SE,3.5,-,N/A,,Clear,140,2013-01-08 04:55:00